"Pseudo-MPEC" for P11gPAo

Created 2021 Jun 11 11:07:16 UT using Find_Orb

Click here for an explanation of pseudo-MPECs

 
 Astrometry: 
     P11gPAo  C2021 06 08v/Laq[\Astrometry\redacted;oa+NPB72PmV!f7J*ONm@i0F*[F51
     P11gPAo  C2021 06 08'g=Qclick(%3DpytVP*mhe))P=#t'I$bQEY\N[a;%X:yPJOZq)\gF51
     P11gPAo  C2021 06 08@q5CkpmpXxo7Zwru8Q--Q]1Zq)se_l_V[)HRPrdNgVbe(]WZEde(F51
     P11gPAo  C2021 06 08vEY=Mx?^YUA[-q-Kyt'a90xqjC5ULeTDrSCNM'a\HBisOnr$vY=,F51
     P11gPAo  C2021 06 081hPU$+here[i9a41nW`u8!W`D3Mo++EIQO7'*;fe_%sku*+JB,\\F51
     P11gPAo  C2021 06 08*\oX+cPf[GXRM(q2bx+SM5^Q1D3mOJbaU$`4kA\#^hP@_c(7H[^sF51
     P11gPAo KC2021 06 09.19765214 18 04.72 -21 56 19.5    ~695b       VNEOCPV06
     P11gPAo KC2021 06 09.20405714 18 04.50 -21 56 17.4    ~695b 22.34GVNEOCPV06
     P11gPAo KC2021 06 09.21046114 18 04.19 -21 56 14.5    ~695b 21.82GVNEOCPV06
     P11gPAo KC2021 06 09.21686614 18 03.95 -21 56 12.8    ~695b 21.46GVNEOCPV06
     P11gPAo KC2021 06 11por)=G-Y.cvf#dWDFZ\he#(N+?vA84nb^fE!3SZup0bsusqu.Tds474
     P11gPAo KC2021 06 11WlGew]#2Rforepexplanationr1K,+[4pC-kq$f%XPRivy,bPC?b474
     P11gPAo KC2021 06 11u_2nJ]ThC593c^^gJcU;i+nuGD?gansPWJrT`tmM]Q1$UN$dCnpk474
     P11gPAo KC2021 06 11C=i*P1d$':[R25l`\?wg*B2-UN#FrtihY@SCD[8Y3$HYe*Rbq\mH474

Station data:
(474) Mount John Observatory, Lake Tekapo  (S43.987388 E170.464960)  New
   Zealand.  Observers A. C. Gilmore, P. M. Kilmartin. Measurer P. M.
   Kilmartin. 1.0-m f/7.7 reflector + CCD.
(F51) Pan-STARRS 1, Haleakala  (N20.707235 W156.255910)  US/Hawaii.
   Observers N. Primak, A. Schultz, S. Watters, J. Thiel, T. Goggia. Measurer
   PS1 Science Consortium. 1.8-m Ritchey-Chrétien + CCD.
(V06) Catalina Sky Survey-Kuiper  (N32.416847 W110.732550)  US/Arizona.
   Observers T. A. Pruyne, B. M. Africano, E. J. Christensen, G. A. Farneth,
   D. C. Fuls, A. R. Gibbs, A. D. Grauer, H. Gröller, J. A. Johnson, R. A.
   Kowalski, S. M. Larson, G. J. Leonard, D. Rankin, R. L. Seaman, F. C.
   Shelly. 1.55-m reflector + CCD.

Orbital elements:  P11gPAo
   Perihelion 2021 Dec 26.188012 +/- 23.3131 TT =  4:30:44 (JD 2459574.688012)
Epoch 2021 Jun 11.0 TT = JDT 2459376.5   Earth MOID: 0.6153   AutoNEOCP
M 306.50227336 +/- 11.624731        (J2000 ecliptic)
n   0.26993422 +/- 0.0306813        Peri.    8.38774 +/- 4.4000424
a   2.37117761 +/- 0.17963          Node   317.76067 +/- 1.7129508
e   0.3136532 +/- 0.0647023         Incl.    4.53826 +/- 0.0395706
P   3.65                   H 19.2   G  0.15   U 10.4  
q 1.62745002 +/- 0.0335148    Q 3.11490519 +/- 0.415861
From 14 observations 2021 June 8-11; mean residual 0".33
Residuals in arcseconds: 
210608 F51  .04+  .02-    210608 F51  .05-  .16-    210611 474  .05-  .05+    
210608 F51  .03+  .06+    210609 V06  .74+  .42-    210611 474  .16-  .09-    
210608 F51  .02+  .03-    210609 V06  .73+  .33-    210611 474  .13-  .12-    
210608 F51  .01-  .00     210609 V06  .54-  .57+    210611 474  .32+  .14+    
210608 F51  .12-  .08+    210609 V06  .84-  .26+    

Ephemerides (geocentric):
Date (UTC) HH   RA              Dec         delta   r     elong  mag " sig PA
---- -- -- --  -------------   -----------  ------ ------ -----  --- ---- ---
2021 06 11 11  14 16 58.896   -21 44 44.80  1.2525 2.1204 138.2 22.2 .046  97
2021 06 11 12  14 16 57.787   -21 44 32.42  1.2526 2.1202 138.2 22.2 .059  87
2021 06 11 13  14 16 56.682   -21 44 20.06  1.2528 2.1201 138.1 22.3 .073  81
2021 06 11 14  14 16 55.581   -21 44 07.71  1.2529 2.1199 138.1 22.3 .088  77
2021 06 11 15  14 16 54.483   -21 43 55.37  1.2531 2.1198 138.0 22.3 .104  74
2021 06 11 16  14 16 53.390   -21 43 43.04  1.2532 2.1196 138.0 22.3 .121  72
2021 06 11 17  14 16 52.300   -21 43 30.72  1.2534 2.1195 137.9 22.3 .139  70
2021 06 11 18  14 16 51.214   -21 43 18.42  1.2536 2.1193 137.9 22.3 .157  69
2021 06 11 19  14 16 50.131   -21 43 06.12  1.2537 2.1192 137.9 22.3 .176  68
2021 06 11 20  14 16 49.053   -21 42 53.84  1.2539 2.1190 137.8 22.3 .195  67
2021 06 11 21  14 16 47.978   -21 42 41.57  1.2540 2.1189 137.8 22.3 .215  66
2021 06 11 22  14 16 46.907   -21 42 29.32  1.2542 2.1187 137.7 22.3 .235  65
2021 06 11 23  14 16 45.840   -21 42 17.07  1.2544 2.1186 137.7 22.3 .256  65
2021 06 12 00  14 16 44.777   -21 42 04.84  1.2545 2.1184 137.6 22.3 .278  64
2021 06 12 01  14 16 43.717   -21 41 52.62  1.2547 2.1182 137.6 22.3 .300  64
2021 06 12 02  14 16 42.661   -21 41 40.41  1.2548 2.1181 137.5 22.3 .323  64
2021 06 12 03  14 16 41.610   -21 41 28.21  1.2550 2.1179 137.5 22.3 .346  63
2021 06 12 04  14 16 40.561   -21 41 16.03  1.2552 2.1178 137.5 22.3 .370  63
2021 06 12 05  14 16 39.517   -21 41 03.86  1.2553 2.1176 137.4 22.3 .394  63
2021 06 12 06  14 16 38.477   -21 40 51.70  1.2555 2.1175 137.4 22.3 .419  63
2021 06 12 07  14 16 37.440   -21 40 39.55  1.2556 2.1173 137.3 22.3 .445  63
2021 06 12 08  14 16 36.407   -21 40 27.42  1.2558 2.1172 137.3 22.3 .471  62
2021 06 12 09  14 16 35.378   -21 40 15.30  1.2560 2.1170 137.2 22.3 .497  62
2021 06 12 10  14 16 34.353   -21 40 03.19  1.2561 2.1169 137.2 22.3 .524  62
2021 06 12 11  14 16 33.332   -21 39 51.09  1.2563 2.1167 137.2 22.3 .552  62
2021 06 12 12  14 16 32.314   -21 39 39.01  1.2565 2.1166 137.1 22.3 .580  62
2021 06 12 13  14 16 31.300   -21 39 26.94  1.2566 2.1164 137.1 22.3 .609  62
2021 06 12 14  14 16 30.290   -21 39 14.88  1.2568 2.1163 137.0 22.3 .639  62
2021 06 12 15  14 16 29.284   -21 39 02.83  1.2570 2.1161 137.0 22.3 .669  62
2021 06 12 16  14 16 28.282   -21 38 50.80  1.2571 2.1159 136.9 22.3 .699  62
2021 06 12 17  14 16 27.283   -21 38 38.77  1.2573 2.1158 136.9 22.3 .730  62
2021 06 12 18  14 16 26.289   -21 38 26.77  1.2574 2.1156 136.9 22.3 .762  62
2021 06 12 19  14 16 25.298   -21 38 14.77  1.2576 2.1155 136.8 22.3 .794  62
2021 06 12 20  14 16 24.311   -21 38 02.79  1.2578 2.1153 136.8 22.3 .827  62
2021 06 12 21  14 16 23.328   -21 37 50.81  1.2579 2.1152 136.7 22.3 .861  62
2021 06 12 22  14 16 22.349   -21 37 38.86  1.2581 2.1150 136.7 22.3 .895  62
2021 06 12 23  14 16 21.373   -21 37 26.91  1.2583 2.1149 136.6 22.3 .930  62
2021 06 13 00  14 16 20.402   -21 37 14.98  1.2584 2.1147 136.6 22.3 .965  62
2021 06 13 01  14 16 19.434   -21 37 03.06  1.2586 2.1146 136.5 22.3 1.00  62
2021 06 13 02  14 16 18.470   -21 36 51.15  1.2588 2.1144 136.5 22.3 1.04  62
2021 06 13 03  14 16 17.510   -21 36 39.26  1.2589 2.1143 136.5 22.3 1.07  62
2021 06 13 04  14 16 16.553   -21 36 27.38  1.2591 2.1141 136.4 22.3 1.11  62
2021 06 13 05  14 16 15.601   -21 36 15.51  1.2593 2.1139 136.4 22.3 1.15  62
2021 06 13 06  14 16 14.652   -21 36 03.65  1.2595 2.1138 136.3 22.3 1.19  62
2021 06 13 07  14 16 13.708   -21 35 51.81  1.2596 2.1136 136.3 22.3 1.23  62
2021 06 13 08  14 16 12.767   -21 35 39.98  1.2598 2.1135 136.2 22.3 1.27  62
2021 06 13 09  14 16 11.830   -21 35 28.16  1.2600 2.1133 136.2 22.3 1.31  62
2021 06 13 10  14 16 10.897   -21 35 16.36  1.2601 2.1132 136.2 22.3 1.35  62